Flag for United Kingdom Weather past 2 weeks in Weymouth, England, United Kingdom

Now
49 °F

Fog.


Feels Like: 43 °F
Forecast: 47 / 52 °F
Wind: 15 mph from Southwest

Location: Isle Of Portland

Current Time: Feb 28, 2015 at 12:51:28 PM

Latest Report: Feb 28, 2015 at 12:00 PM


Visibility: 5 mi

Pressure: 29.81 "Hg

Humidity: 99%

Dew point: 48 °F

Location of WeymouthLocation

Historic Weather in Weymouth — Graph

°F

Weymouth temperature yesterday

Maximum temperature yesterday: 47 °F (at 2:00 PM)
Minimum temperature yesterday: 41 °F (at 5:00 AM)
Average temperature yesterday: 44 °F

Past Weeks' High & Low Weather Summary

 TemperatureHumidityPressure
High50 °F (Feb 25, 3:00 PM)100% (Feb 26, 10:00 AM)30.79 "Hg (Feb 26, 10:00 AM)
Low39 °F (Feb 17, 7:00 AM)58% (Feb 21, 2:00 PM)29.32 "Hg (Feb 23, 1:00 AM)
Average45 °F81%29.91 "Hg
* Reported Feb 13 11:00 AM — Feb 28 11:00 AM, Weymouth, Weather by CustomWeather, © 2015

Note: Actual official high and low records may vary slightly from our data, if they occured in-between our weather recording intervals... More about our weather records

Advertising

Weymouth weather history for previous 24 hours

 ConditionsComfort  
Time TempWeatherWind HumidityBarometerVisibility
11:00 AM
Sat, Feb 28
48 °FFog.15 mph99%29.82 "Hg4 mi
10:00 AM48 °FCool.13 mph98%29.83 "Hg4 mi
9:00 AM47 °FDuststorm.20 mph98%29.85 "Hg1 mi
8:00 AM47 °FLight rain. Cloudy.22 mph97%29.85 "Hg1 mi
7:00 AM46 °FFreezing rain. Cloudy.21 mph97%29.86 "Hg2 mi
6:00 AM46 °FLight rain. Overcast.22 mph96%29.87 "Hg2 mi
4:00 AM45 °FRain showers. Overcast.20 mph95%29.94 "Hg2 mi
3:00 AM46 °FSmoke.22 mph87%29.96 "Hg3 mi
2:00 AM46 °FCool.20 mph84%29.99 "Hg9 mi
1:00 AM46 °FCool.21 mph83%30.01 "Hg8 mi
12:00 AM46 °FCool.20 mph82%30.04 "Hg7 mi
11:00 PM
Fri, Feb 27
46 °FCool.20 mph83%30.06 "Hg11 mi
10:00 PM45 °FCool.18 mph84%30.09 "Hg14 mi
9:00 PM44 °FQuite cool.12 mph83%30.10 "Hg12 mi
8:00 PM45 °FCool.14 mph79%30.12 "Hg11 mi
7:00 PM45 °FCool.15 mph75%30.14 "Hg13 mi
6:00 PM45 °FCool.18 mph75%30.14 "Hg9 mi
5:00 PM45 °FCool.20 mph73%30.14 "Hg9 mi
4:00 PM46 °FCool.16 mph70%30.15 "Hg10 mi
3:00 PM47 °FCool.14 mph64%30.16 "Hg12 mi
2:00 PM47 °FCool.12 mph67%30.18 "Hg7 mi
1:00 PM46 °FCool.13 mph67%30.19 "Hg7 mi
12:00 PM45 °FCool.12 mph67%30.20 "Hg14 mi
Weather by CustomWeather, © 2015

See weather overviewHow to use our weather pages